Year,Month,Day,Hour,Minute,Value (Times are PST for temperature in C)
2013,05,04,00,00,10.70
2013,05,04,00,01,10.70
2013,05,04,00,02,10.70
2013,05,04,00,03,10.70
2013,05,04,00,04,10.60
2013,05,04,00,05,10.60
2013,05,04,00,06,10.60
2013,05,04,00,07,10.60
2013,05,04,00,08,10.60
2013,05,04,00,09,10.60
2013,05,04,00,10,10.60
2013,05,04,00,11,10.60
2013,05,04,00,12,10.60
2013,05,04,00,13,10.60
2013,05,04,00,14,10.50
2013,05,04,00,15,10.40
2013,05,04,00,16,10.40
2013,05,04,00,17,10.40
2013,05,04,00,18,10.40
2013,05,04,00,19,10.40
2013,05,04,00,20,10.30
2013,05,04,00,21,10.30
2013,05,04,00,22,10.20
2013,05,04,00,23,10.20
2013,05,04,00,24,10.20
2013,05,04,00,25,10.10
2013,05,04,00,26,10.10
2013,05,04,00,27,10.10
2013,05,04,00,28,10.10
2013,05,04,00,29,10.10
2013,05,04,00,30,10.00
2013,05,04,00,31,9.90
2013,05,04,00,32,9.90
2013,05,04,00,33,9.90
2013,05,04,00,34,9.90
2013,05,04,00,35,9.90
2013,05,04,00,36,9.90
2013,05,04,00,37,9.90
2013,05,04,00,38,9.90
2013,05,04,00,39,9.90
2013,05,04,00,40,9.90
2013,05,04,00,41,9.90
2013,05,04,00,42,9.90
2013,05,04,00,43,9.90
2013,05,04,00,44,9.90
2013,05,04,00,45,9.90
2013,05,04,00,46,9.90
2013,05,04,00,47,9.90
2013,05,04,00,48,9.90
2013,05,04,00,49,9.90
2013,05,04,00,50,9.90
2013,05,04,00,51,9.90
2013,05,04,00,52,9.90
2013,05,04,00,53,9.90
2013,05,04,00,54,9.80
2013,05,04,00,55,9.80
2013,05,04,00,56,9.80
2013,05,04,00,57,9.70
2013,05,04,00,58,9.70
2013,05,04,00,59,9.70
2013,05,04,01,00,9.70
2013,05,04,01,01,9.60
2013,05,04,01,02,9.60
2013,05,04,01,03,9.60
2013,05,04,01,04,9.50
2013,05,04,01,05,9.50
2013,05,04,01,06,9.50
2013,05,04,01,07,9.50
2013,05,04,01,08,9.50
2013,05,04,01,09,9.50
2013,05,04,01,10,9.40
2013,05,04,01,11,9.40
2013,05,04,01,12,9.40
2013,05,04,01,13,9.40
2013,05,04,01,14,9.40
2013,05,04,01,15,9.40
2013,05,04,01,16,9.40
2013,05,04,01,17,9.40
2013,05,04,01,18,9.40
2013,05,04,01,19,9.40
2013,05,04,01,20,9.40
2013,05,04,01,21,9.40
2013,05,04,01,22,9.40
2013,05,04,01,23,9.30
2013,05,04,01,24,9.30
2013,05,04,01,25,9.30
2013,05,04,01,26,9.30
2013,05,04,01,27,9.30
2013,05,04,01,28,9.30
2013,05,04,01,29,9.30
2013,05,04,01,30,9.30
2013,05,04,01,31,9.20
2013,05,04,01,32,9.20
2013,05,04,01,33,9.20
2013,05,04,01,34,9.20
2013,05,04,01,35,9.20
2013,05,04,01,36,9.20
2013,05,04,01,37,9.20
2013,05,04,01,38,9.20
2013,05,04,01,39,9.20
2013,05,04,01,40,9.10
2013,05,04,01,41,9.10
2013,05,04,01,42,9.10
2013,05,04,01,43,9.10
2013,05,04,01,44,9.00
2013,05,04,01,45,9.00
2013,05,04,01,46,9.00
2013,05,04,01,47,9.00
2013,05,04,01,48,9.00
2013,05,04,01,49,9.00
2013,05,04,01,50,8.90
2013,05,04,01,51,8.90
2013,05,04,01,52,8.90
2013,05,04,01,53,8.90
2013,05,04,01,54,8.90
2013,05,04,01,55,8.90
2013,05,04,01,56,8.90
2013,05,04,01,57,8.90
2013,05,04,01,58,8.90
2013,05,04,01,59,8.90
2013,05,04,02,00,8.90
2013,05,04,02,01,8.90
2013,05,04,02,02,9.00
2013,05,04,02,03,9.00
2013,05,04,02,04,9.00
2013,05,04,02,05,9.00
2013,05,04,02,06,9.00
2013,05,04,02,07,9.00
2013,05,04,02,08,9.10
2013,05,04,02,09,9.10
2013,05,04,02,10,9.10
2013,05,04,02,11,9.00
2013,05,04,02,12,9.00
2013,05,04,02,13,9.00
2013,05,04,02,14,9.00
2013,05,04,02,15,9.00
2013,05,04,02,16,8.90
2013,05,04,02,17,8.90
2013,05,04,02,18,8.90
2013,05,04,02,19,8.80
2013,05,04,02,20,8.80
2013,05,04,02,21,8.80
2013,05,04,02,22,8.70
2013,05,04,02,23,8.70
2013,05,04,02,24,8.70
2013,05,04,02,25,8.70
2013,05,04,02,26,8.70
2013,05,04,02,27,8.70
2013,05,04,02,28,8.70
2013,05,04,02,29,8.70
2013,05,04,02,30,8.70
2013,05,04,02,31,8.70
2013,05,04,02,32,8.70
2013,05,04,02,33,8.70
2013,05,04,02,34,8.70
2013,05,04,02,35,8.70
2013,05,04,02,36,8.70
2013,05,04,02,37,8.70
2013,05,04,02,38,8.70
2013,05,04,02,39,8.70
2013,05,04,02,40,8.60
2013,05,04,02,41,8.60
2013,05,04,02,42,8.60
2013,05,04,02,43,8.50
2013,05,04,02,44,8.50
2013,05,04,02,45,8.40
2013,05,04,02,46,8.40
2013,05,04,02,47,8.40
2013,05,04,02,48,8.30
2013,05,04,02,49,8.30
2013,05,04,02,50,8.20
2013,05,04,02,51,8.20
2013,05,04,02,52,8.20
2013,05,04,02,53,8.20
2013,05,04,02,54,8.10
2013,05,04,02,55,8.10
2013,05,04,02,56,8.10
2013,05,04,02,57,8.10
2013,05,04,02,58,8.00
2013,05,04,02,59,8.00
2013,05,04,03,00,8.00
2013,05,04,03,01,8.00
2013,05,04,03,02,8.00
2013,05,04,03,03,8.00
2013,05,04,03,04,8.00
2013,05,04,03,05,8.10
2013,05,04,03,06,8.10
2013,05,04,03,07,8.10
2013,05,04,03,08,8.10
2013,05,04,03,09,8.10
2013,05,04,03,10,8.10
2013,05,04,03,11,8.00
2013,05,04,03,12,8.00
2013,05,04,03,13,8.00
2013,05,04,03,14,8.10
2013,05,04,03,15,8.10
2013,05,04,03,16,8.10
2013,05,04,03,17,8.10
2013,05,04,03,18,8.20
2013,05,04,03,19,8.20
2013,05,04,03,20,8.20
2013,05,04,03,21,8.20
2013,05,04,03,22,8.20
2013,05,04,03,23,8.20
2013,05,04,03,24,8.20
2013,05,04,03,25,8.20
2013,05,04,03,26,8.20
2013,05,04,03,27,8.20
2013,05,04,03,28,8.20
2013,05,04,03,29,8.20
2013,05,04,03,30,8.20
2013,05,04,03,31,8.20
2013,05,04,03,32,8.20
2013,05,04,03,33,8.20
2013,05,04,03,34,8.20
2013,05,04,03,35,8.10
2013,05,04,03,36,8.10
2013,05,04,03,37,8.10
2013,05,04,03,38,8.10
2013,05,04,03,39,8.00
2013,05,04,03,40,8.00
2013,05,04,03,41,8.00
2013,05,04,03,42,7.90
2013,05,04,03,43,7.90
2013,05,04,03,44,7.90
2013,05,04,03,45,7.90
2013,05,04,03,46,7.80
2013,05,04,03,47,7.80
2013,05,04,03,48,7.80
2013,05,04,03,49,7.80
2013,05,04,03,50,7.80
2013,05,04,03,51,7.80
2013,05,04,03,52,7.70
2013,05,04,03,53,7.70
2013,05,04,03,54,7.70
2013,05,04,03,55,7.60
2013,05,04,03,56,7.60
2013,05,04,03,57,7.60
2013,05,04,03,58,7.60
2013,05,04,03,59,7.60
2013,05,04,04,00,7.60
2013,05,04,04,01,7.60
2013,05,04,04,02,7.60
2013,05,04,04,03,7.60
2013,05,04,04,04,7.60
2013,05,04,04,05,7.60
2013,05,04,04,06,7.60
2013,05,04,04,07,7.70
2013,05,04,04,08,7.70
2013,05,04,04,09,7.70
2013,05,04,04,10,7.70
2013,05,04,04,11,7.70
2013,05,04,04,12,7.70
2013,05,04,04,13,7.60
2013,05,04,04,14,7.60
2013,05,04,04,15,7.60
2013,05,04,04,16,7.60
2013,05,04,04,17,7.50
2013,05,04,04,18,7.50
2013,05,04,04,19,7.50
2013,05,04,04,20,7.50
2013,05,04,04,21,7.50
2013,05,04,04,22,7.50
2013,05,04,04,23,7.50
2013,05,04,04,24,7.40
2013,05,04,04,25,7.40
2013,05,04,04,26,7.40
2013,05,04,04,27,7.40
2013,05,04,04,28,7.40
2013,05,04,04,29,7.30
2013,05,04,04,30,7.30
2013,05,04,04,31,7.30
2013,05,04,04,32,7.30
2013,05,04,04,33,7.30
2013,05,04,04,34,7.30
2013,05,04,04,35,7.20
2013,05,04,04,36,7.20
2013,05,04,04,37,7.20
2013,05,04,04,38,7.20
2013,05,04,04,39,7.20
2013,05,04,04,40,7.30
2013,05,04,04,41,7.30
2013,05,04,04,42,7.30
2013,05,04,04,43,7.30
2013,05,04,04,44,7.30
2013,05,04,04,45,7.30
2013,05,04,04,46,7.40
2013,05,04,04,47,7.40
2013,05,04,04,48,7.40
2013,05,04,04,49,7.40
2013,05,04,04,50,7.30
2013,05,04,04,51,7.30
2013,05,04,04,52,7.30
2013,05,04,04,53,7.30
2013,05,04,04,54,7.30
2013,05,04,04,55,7.30
2013,05,04,04,56,7.30
2013,05,04,04,57,7.30
2013,05,04,04,58,7.30
2013,05,04,04,59,7.30
2013,05,04,05,00,7.30
2013,05,04,05,01,7.30
2013,05,04,05,02,7.30
2013,05,04,05,03,7.30
2013,05,04,05,04,7.30
2013,05,04,05,05,7.30
2013,05,04,05,06,7.30
2013,05,04,05,07,7.30
2013,05,04,05,08,7.30
2013,05,04,05,09,7.30
2013,05,04,05,10,7.30
2013,05,04,05,11,7.30
2013,05,04,05,12,7.30
2013,05,04,05,13,7.30
2013,05,04,05,14,7.20
2013,05,04,05,15,7.20
2013,05,04,05,16,7.20
2013,05,04,05,17,7.20
2013,05,04,05,18,7.20
2013,05,04,05,19,7.10
2013,05,04,05,20,7.10
2013,05,04,05,21,7.10
2013,05,04,05,22,7.10
2013,05,04,05,23,7.10
2013,05,04,05,24,7.00
2013,05,04,05,25,7.10
2013,05,04,05,26,7.10
2013,05,04,05,27,7.10
2013,05,04,05,28,7.10
2013,05,04,05,29,7.10
2013,05,04,05,30,7.10
2013,05,04,05,31,7.10
2013,05,04,05,32,7.10
2013,05,04,05,33,7.10
2013,05,04,05,34,7.10
2013,05,04,05,35,7.10
2013,05,04,05,36,7.10
2013,05,04,05,37,7.10
2013,05,04,05,38,7.20
2013,05,04,05,39,7.20
2013,05,04,05,40,7.20
2013,05,04,05,41,7.20
2013,05,04,05,42,7.20
2013,05,04,05,43,7.20
2013,05,04,05,44,7.20
2013,05,04,05,45,7.20
2013,05,04,05,46,7.20
2013,05,04,05,47,7.20
2013,05,04,05,48,7.20
2013,05,04,05,49,7.20
2013,05,04,05,50,7.20
2013,05,04,05,51,7.20
2013,05,04,05,52,7.20
2013,05,04,05,53,7.20
2013,05,04,05,54,7.20
2013,05,04,05,55,7.20
2013,05,04,05,56,7.20
2013,05,04,05,57,7.20
2013,05,04,05,58,7.20
2013,05,04,05,59,7.20
2013,05,04,06,00,7.30
2013,05,04,06,01,7.30
2013,05,04,06,02,7.30
2013,05,04,06,03,7.30
2013,05,04,06,04,7.30
2013,05,04,06,05,7.30
2013,05,04,06,06,7.30
2013,05,04,06,07,7.30
2013,05,04,06,08,7.30
2013,05,04,06,09,7.40
2013,05,04,06,10,7.50
2013,05,04,06,11,7.60
2013,05,04,06,12,7.60
2013,05,04,06,13,7.60
2013,05,04,06,14,7.70
2013,05,04,06,15,7.70
2013,05,04,06,16,7.70
2013,05,04,06,17,7.70
2013,05,04,06,18,7.80
2013,05,04,06,19,7.80
2013,05,04,06,20,7.80
2013,05,04,06,21,7.80
2013,05,04,06,22,7.80
2013,05,04,06,23,7.80
2013,05,04,06,24,7.70
2013,05,04,06,25,7.70
2013,05,04,06,26,7.70
2013,05,04,06,27,7.70
2013,05,04,06,28,7.70
2013,05,04,06,29,7.70
2013,05,04,06,30,7.70
2013,05,04,06,31,7.70
2013,05,04,06,32,7.70
2013,05,04,06,33,7.70
2013,05,04,06,34,7.70
2013,05,04,06,35,7.80
2013,05,04,06,36,7.80
2013,05,04,06,37,7.80
2013,05,04,06,38,7.80
2013,05,04,06,39,7.80
2013,05,04,06,40,7.70
2013,05,04,06,41,7.70
2013,05,04,06,42,7.70
2013,05,04,06,43,7.70
2013,05,04,06,44,7.60
2013,05,04,06,45,7.60
2013,05,04,06,46,7.60
2013,05,04,06,47,7.60
2013,05,04,06,48,7.70
2013,05,04,06,49,7.70
2013,05,04,06,50,7.70
2013,05,04,06,51,7.80
2013,05,04,06,52,7.80
2013,05,04,06,53,7.80
2013,05,04,06,54,7.90
2013,05,04,06,55,8.00
2013,05,04,06,56,8.00
2013,05,04,06,57,8.10
2013,05,04,06,58,8.30
2013,05,04,06,59,8.30
2013,05,04,07,00,8.50
2013,05,04,07,01,8.50
2013,05,04,07,02,8.60
2013,05,04,07,03,8.70
2013,05,04,07,04,8.80
2013,05,04,07,05,8.90
2013,05,04,07,06,8.90
2013,05,04,07,07,9.00
2013,05,04,07,08,9.10
2013,05,04,07,09,9.20
2013,05,04,07,10,9.30
2013,05,04,07,11,9.40
2013,05,04,07,12,9.50
2013,05,04,07,13,9.60
2013,05,04,07,14,9.70
2013,05,04,07,15,9.80
2013,05,04,07,16,9.80
2013,05,04,07,17,9.90
2013,05,04,07,18,10.00
2013,05,04,07,19,10.10
2013,05,04,07,20,10.20
2013,05,04,07,21,10.30
2013,05,04,07,22,10.30
2013,05,04,07,23,10.40
2013,05,04,07,24,10.40
2013,05,04,07,25,10.50
2013,05,04,07,26,10.60
2013,05,04,07,27,10.70
2013,05,04,07,28,10.80
2013,05,04,07,29,10.80
2013,05,04,07,30,10.90
2013,05,04,07,31,10.90
2013,05,04,07,32,10.90
2013,05,04,07,33,10.90
2013,05,04,07,34,11.00
2013,05,04,07,35,11.10
2013,05,04,07,36,11.20
2013,05,04,07,37,11.30
2013,05,04,07,38,11.30
2013,05,04,07,39,11.40
2013,05,04,07,40,11.50
2013,05,04,07,41,11.60
2013,05,04,07,42,11.70
2013,05,04,07,43,11.70
2013,05,04,07,44,11.80
2013,05,04,07,45,11.90
2013,05,04,07,46,12.00
2013,05,04,07,47,12.00
2013,05,04,07,48,12.10
2013,05,04,07,49,12.20
2013,05,04,07,50,12.20
2013,05,04,07,51,12.30
2013,05,04,07,52,12.30
2013,05,04,07,53,12.40
2013,05,04,07,54,12.40
2013,05,04,07,55,12.50
2013,05,04,07,56,12.60
2013,05,04,07,57,12.70
2013,05,04,07,58,12.80
2013,05,04,07,59,12.80
2013,05,04,08,00,12.80
2013,05,04,08,01,12.90
2013,05,04,08,02,13.00
2013,05,04,08,03,13.00
2013,05,04,08,04,12.90
2013,05,04,08,05,13.00
2013,05,04,08,06,13.10
2013,05,04,08,07,13.20
2013,05,04,08,08,13.30
2013,05,04,08,09,13.30
2013,05,04,08,10,13.40
2013,05,04,08,11,13.50
2013,05,04,08,12,13.50
2013,05,04,08,13,13.50
2013,05,04,08,14,13.60
2013,05,04,08,15,13.70
2013,05,04,08,16,13.70
2013,05,04,08,17,13.80
2013,05,04,08,18,13.80
2013,05,04,08,19,13.90
2013,05,04,08,20,13.90
2013,05,04,08,21,14.00
2013,05,04,08,22,14.10
2013,05,04,08,23,14.20
2013,05,04,08,24,14.30
2013,05,04,08,25,14.40
2013,05,04,08,26,14.50
2013,05,04,08,27,14.60
2013,05,04,08,28,14.70
2013,05,04,08,29,14.80
2013,05,04,08,30,14.90
2013,05,04,08,31,15.00
2013,05,04,08,32,15.10
2013,05,04,08,33,15.20
2013,05,04,08,34,15.30
2013,05,04,08,35,15.40
2013,05,04,08,36,15.50
2013,05,04,08,37,15.60
2013,05,04,08,38,15.70
2013,05,04,08,39,15.80
2013,05,04,08,40,15.80
2013,05,04,08,41,15.90
2013,05,04,08,42,15.90
2013,05,04,08,43,15.90
2013,05,04,08,44,16.00
2013,05,04,08,45,16.10
2013,05,04,08,46,16.20
2013,05,04,08,47,16.30
2013,05,04,08,48,16.40
2013,05,04,08,49,16.50
2013,05,04,08,50,16.60
2013,05,04,08,51,16.70
2013,05,04,08,52,16.70
2013,05,04,08,53,16.80
2013,05,04,08,54,16.90
2013,05,04,08,55,17.00
2013,05,04,08,56,17.00
2013,05,04,08,57,17.10
2013,05,04,08,58,17.10
2013,05,04,08,59,17.10
2013,05,04,09,00,17.10
2013,05,04,09,01,17.00
2013,05,04,09,02,17.00
2013,05,04,09,03,17.00
2013,05,04,09,04,17.00
2013,05,04,09,05,16.90
2013,05,04,09,06,16.90
2013,05,04,09,07,16.90
2013,05,04,09,08,17.00
2013,05,04,09,09,17.10
2013,05,04,09,10,17.20
2013,05,04,09,11,17.30
2013,05,04,09,12,17.40
2013,05,04,09,13,17.40
2013,05,04,09,14,17.30
2013,05,04,09,15,17.10
2013,05,04,09,16,16.80
2013,05,04,09,17,16.50
2013,05,04,09,18,16.20
2013,05,04,09,19,16.10
2013,05,04,09,20,16.10
2013,05,04,09,21,16.10
2013,05,04,09,22,16.00
2013,05,04,09,23,16.00
2013,05,04,09,24,16.10
2013,05,04,09,25,16.10
2013,05,04,09,26,16.20
2013,05,04,09,27,16.40
2013,05,04,09,28,16.60
2013,05,04,09,29,16.70
2013,05,04,09,30,16.90
2013,05,04,09,31,17.00
2013,05,04,09,32,17.10
2013,05,04,09,33,17.20
2013,05,04,09,34,17.30
2013,05,04,09,35,17.30
2013,05,04,09,36,17.40
2013,05,04,09,37,17.40
2013,05,04,09,38,17.40
2013,05,04,09,39,17.40
2013,05,04,09,40,17.50
2013,05,04,09,41,17.50
2013,05,04,09,42,17.60
2013,05,04,09,43,17.70
2013,05,04,09,44,17.80
2013,05,04,09,45,17.80
2013,05,04,09,46,17.80
2013,05,04,09,47,17.80
2013,05,04,09,48,17.90
2013,05,04,09,49,17.90
2013,05,04,09,50,17.90
2013,05,04,09,51,18.00
2013,05,04,09,52,18.10
2013,05,04,09,53,18.20
2013,05,04,09,54,18.20
2013,05,04,09,55,18.20
2013,05,04,09,56,18.10
2013,05,04,09,57,18.10
2013,05,04,09,58,18.10
2013,05,04,09,59,18.00
2013,05,04,10,00,18.00
2013,05,04,10,01,18.10
2013,05,04,10,02,18.20
2013,05,04,10,03,18.30
2013,05,04,10,04,18.40
2013,05,04,10,05,18.40
2013,05,04,10,06,18.40
2013,05,04,10,07,18.40
2013,05,04,10,08,18.40
2013,05,04,10,09,18.50
2013,05,04,10,10,18.50
2013,05,04,10,11,18.60
2013,05,04,10,12,18.60
2013,05,04,10,13,18.50
2013,05,04,10,14,18.50
2013,05,04,10,15,18.50
2013,05,04,10,16,18.50
2013,05,04,10,17,18.50
2013,05,04,10,18,18.60
2013,05,04,10,19,18.60
2013,05,04,10,20,18.60
2013,05,04,10,21,18.60
2013,05,04,10,22,18.60
2013,05,04,10,23,18.60
2013,05,04,10,24,18.60
2013,05,04,10,25,18.50
2013,05,04,10,26,18.60
2013,05,04,10,27,18.60
2013,05,04,10,28,18.70
2013,05,04,10,29,18.70
2013,05,04,10,30,18.70
2013,05,04,10,31,18.60
2013,05,04,10,32,18.60
2013,05,04,10,33,18.60
2013,05,04,10,34,18.60
2013,05,04,10,35,18.50
2013,05,04,10,36,18.50
2013,05,04,10,37,18.60
2013,05,04,10,38,18.70
2013,05,04,10,39,18.70
2013,05,04,10,40,18.80
2013,05,04,10,41,18.90
2013,05,04,10,42,19.00
2013,05,04,10,43,19.10
2013,05,04,10,44,19.20
2013,05,04,10,45,19.20
2013,05,04,10,46,19.30
2013,05,04,10,47,19.30
2013,05,04,10,48,19.30
2013,05,04,10,49,19.30
2013,05,04,10,50,19.40
2013,05,04,10,51,19.50
2013,05,04,10,52,19.60
2013,05,04,10,53,19.70
2013,05,04,10,54,19.80
2013,05,04,10,55,19.80
2013,05,04,10,56,19.90
2013,05,04,10,57,19.90
2013,05,04,10,58,19.80
2013,05,04,10,59,19.70
2013,05,04,11,00,19.70
2013,05,04,11,01,19.70
2013,05,04,11,02,19.80
2013,05,04,11,03,19.90
2013,05,04,11,04,19.90
2013,05,04,11,05,19.90
2013,05,04,11,06,19.90
2013,05,04,11,07,20.00
2013,05,04,11,08,20.10
2013,05,04,11,09,20.10
2013,05,04,11,10,20.20
2013,05,04,11,11,20.20
2013,05,04,11,12,20.30
2013,05,04,11,13,20.30
2013,05,04,11,14,20.40
2013,05,04,11,15,20.50
2013,05,04,11,16,20.50
2013,05,04,11,17,20.50
2013,05,04,11,18,20.60
2013,05,04,11,19,20.60
2013,05,04,11,20,20.50
2013,05,04,11,21,20.50
2013,05,04,11,22,20.50
2013,05,04,11,23,20.50
2013,05,04,11,24,20.40
2013,05,04,11,25,20.40
2013,05,04,11,26,20.50
2013,05,04,11,27,20.50
2013,05,04,11,28,20.50
2013,05,04,11,29,20.50
2013,05,04,11,30,20.40
2013,05,04,11,31,20.50
2013,05,04,11,32,20.40
2013,05,04,11,33,20.30
2013,05,04,11,34,20.30
2013,05,04,11,35,20.30
2013,05,04,11,36,20.30
2013,05,04,11,37,20.30
2013,05,04,11,38,20.40
2013,05,04,11,39,20.50
2013,05,04,11,40,20.60
2013,05,04,11,41,20.70
2013,05,04,11,42,20.80
2013,05,04,11,43,20.80
2013,05,04,11,44,20.70
2013,05,04,11,45,20.70
2013,05,04,11,46,20.70
2013,05,04,11,47,20.70
2013,05,04,11,48,20.80
2013,05,04,11,49,20.90
2013,05,04,11,50,20.90
2013,05,04,11,51,21.00
2013,05,04,11,52,21.00
2013,05,04,11,53,20.90
2013,05,04,11,54,20.90
2013,05,04,11,55,20.90
2013,05,04,11,56,20.90
2013,05,04,11,57,20.90
2013,05,04,11,58,20.90
2013,05,04,11,59,21.00
2013,05,04,12,00,20.90
2013,05,04,12,01,20.90
2013,05,04,12,02,20.90
2013,05,04,12,03,21.00
2013,05,04,12,04,21.00
2013,05,04,12,05,20.90
2013,05,04,12,06,20.90
2013,05,04,12,07,20.90
2013,05,04,12,08,21.00
2013,05,04,12,09,21.00
2013,05,04,12,10,21.00
2013,05,04,12,11,20.90
2013,05,04,12,12,20.90
2013,05,04,12,13,20.90
2013,05,04,12,14,20.90
2013,05,04,12,15,20.90
2013,05,04,12,16,20.90
2013,05,04,12,17,20.90
2013,05,04,12,18,20.90
2013,05,04,12,19,21.00
2013,05,04,12,20,21.00
2013,05,04,12,21,21.10
2013,05,04,12,22,21.10
2013,05,04,12,23,21.20
2013,05,04,12,24,21.20
2013,05,04,12,25,21.30
2013,05,04,12,26,21.20
2013,05,04,12,27,21.20
2013,05,04,12,28,21.20
2013,05,04,12,29,21.30
2013,05,04,12,30,21.30
2013,05,04,12,31,21.30
2013,05,04,12,32,21.30
2013,05,04,12,33,21.40
2013,05,04,12,34,21.50
2013,05,04,12,35,21.60
2013,05,04,12,36,21.60
2013,05,04,12,37,21.60
2013,05,04,12,38,21.60
2013,05,04,12,39,21.70
2013,05,04,12,40,21.70
2013,05,04,12,41,21.60
2013,05,04,12,42,21.60
2013,05,04,12,43,21.60
2013,05,04,12,44,21.60
2013,05,04,12,45,21.60
2013,05,04,12,46,21.60
2013,05,04,12,47,21.60
2013,05,04,12,48,21.70
2013,05,04,12,49,21.70
2013,05,04,12,50,21.70
2013,05,04,12,51,21.70
2013,05,04,12,52,21.70
2013,05,04,12,53,21.70
2013,05,04,12,54,21.70
2013,05,04,12,55,21.70
2013,05,04,12,56,21.80
2013,05,04,12,57,21.80
2013,05,04,12,58,21.80
2013,05,04,12,59,21.80
2013,05,04,13,00,21.80
2013,05,04,13,01,21.80
2013,05,04,13,02,21.80
2013,05,04,13,03,21.80
2013,05,04,13,04,21.80
2013,05,04,13,05,21.80
2013,05,04,13,06,21.80
2013,05,04,13,07,21.80
2013,05,04,13,08,21.80
2013,05,04,13,09,21.80
2013,05,04,13,10,21.80
2013,05,04,13,11,21.80
2013,05,04,13,12,21.80
2013,05,04,13,13,21.90
2013,05,04,13,14,21.90
2013,05,04,13,15,22.00
2013,05,04,13,16,22.00
2013,05,04,13,17,22.00
2013,05,04,13,18,21.90
2013,05,04,13,19,21.90
2013,05,04,13,20,21.90
2013,05,04,13,21,22.00
2013,05,04,13,22,22.10
2013,05,04,13,23,22.20
2013,05,04,13,24,22.30
2013,05,04,13,25,22.40
2013,05,04,13,26,22.40
2013,05,04,13,27,22.40
2013,05,04,13,28,22.40
2013,05,04,13,29,22.50
2013,05,04,13,30,22.50
2013,05,04,13,31,22.50
2013,05,04,13,32,22.50
2013,05,04,13,33,22.40
2013,05,04,13,34,22.40
2013,05,04,13,35,22.50
2013,05,04,13,36,22.60
2013,05,04,13,37,22.60
2013,05,04,13,38,22.60
2013,05,04,13,39,22.60
2013,05,04,13,40,22.70
2013,05,04,13,41,22.70
2013,05,04,13,42,22.70
2013,05,04,13,43,22.70
2013,05,04,13,44,22.80
2013,05,04,13,45,22.80
2013,05,04,13,46,22.90
2013,05,04,13,47,22.90
2013,05,04,13,48,22.90
2013,05,04,13,49,22.90
2013,05,04,13,50,22.90
2013,05,04,13,51,22.80
2013,05,04,13,52,22.80
2013,05,04,13,53,22.80
2013,05,04,13,54,22.80
2013,05,04,13,55,22.90
2013,05,04,13,56,22.90
2013,05,04,13,57,22.90
2013,05,04,13,58,22.90
2013,05,04,13,59,22.90
2013,05,04,14,00,22.90
2013,05,04,14,01,22.90
2013,05,04,14,02,22.90
2013,05,04,14,03,23.00
2013,05,04,14,04,23.10
2013,05,04,14,05,23.10
2013,05,04,14,06,23.10
2013,05,04,14,07,23.10
2013,05,04,14,08,23.10
2013,05,04,14,09,23.20
2013,05,04,14,10,23.30
2013,05,04,14,11,23.30
2013,05,04,14,12,23.30
2013,05,04,14,13,23.30
2013,05,04,14,14,23.30
2013,05,04,14,15,23.40
2013,05,04,14,16,23.40
2013,05,04,14,17,23.50
2013,05,04,14,18,23.60
2013,05,04,14,19,23.60
2013,05,04,14,20,23.60
2013,05,04,14,21,23.50
2013,05,04,14,22,23.40
2013,05,04,14,23,23.40
2013,05,04,14,24,23.50
2013,05,04,14,25,23.60
2013,05,04,14,26,23.70
2013,05,04,14,27,23.70
2013,05,04,14,28,23.70
2013,05,04,14,29,23.70
2013,05,04,14,30,23.80
2013,05,04,14,31,23.80
2013,05,04,14,32,23.90
2013,05,04,14,33,24.00
2013,05,04,14,34,24.10
2013,05,04,14,35,23.90
2013,05,04,14,36,23.90
2013,05,04,14,37,23.90
2013,05,04,14,38,23.90
2013,05,04,14,39,23.90
2013,05,04,14,40,23.90
2013,05,04,14,41,23.90
2013,05,04,14,42,23.90
2013,05,04,14,43,23.90
2013,05,04,14,44,23.90
2013,05,04,14,45,23.90
2013,05,04,14,46,23.90
2013,05,04,14,47,23.90
2013,05,04,14,48,23.90
2013,05,04,14,49,23.90
2013,05,04,14,50,24.00
2013,05,04,14,51,24.10
2013,05,04,14,52,24.20
2013,05,04,14,53,24.30
2013,05,04,14,54,24.30
2013,05,04,14,55,24.20
2013,05,04,14,56,24.20
2013,05,04,14,57,24.20
2013,05,04,14,58,24.30
2013,05,04,14,59,24.40
2013,05,04,15,00,24.40
2013,05,04,15,01,24.40
2013,05,04,15,02,24.40
2013,05,04,15,03,24.40
2013,05,04,15,04,24.40
2013,05,04,15,05,24.50
2013,05,04,15,06,24.60
2013,05,04,15,07,24.60
2013,05,04,15,08,24.70
2013,05,04,15,09,24.70
2013,05,04,15,10,24.70
2013,05,04,15,11,24.60
2013,05,04,15,12,24.60
2013,05,04,15,13,24.50
2013,05,04,15,14,24.60
2013,05,04,15,15,24.50
2013,05,04,15,16,24.50
2013,05,04,15,17,24.50
2013,05,04,15,18,24.50
2013,05,04,15,19,24.50
2013,05,04,15,20,24.50
2013,05,04,15,21,24.60
2013,05,04,15,22,24.60
2013,05,04,15,23,24.60
2013,05,04,15,24,24.60
2013,05,04,15,25,24.70
2013,05,04,15,26,24.80
2013,05,04,15,27,24.80
2013,05,04,15,28,24.90
2013,05,04,15,29,24.90
2013,05,04,15,30,25.00
2013,05,04,15,31,25.00
2013,05,04,15,32,25.10
2013,05,04,15,33,25.10
2013,05,04,15,34,25.20
2013,05,04,15,35,24.90
2013,05,04,15,36,24.40
2013,05,04,15,37,24.00
2013,05,04,15,38,23.80
2013,05,04,15,39,23.60
2013,05,04,15,40,23.40
2013,05,04,15,41,23.30
2013,05,04,15,42,23.30
2013,05,04,15,43,23.30
2013,05,04,15,44,23.30
2013,05,04,15,45,23.30
2013,05,04,15,46,23.10
2013,05,04,15,47,22.90
2013,05,04,15,48,22.70
2013,05,04,15,49,22.60
2013,05,04,15,50,22.30
2013,05,04,15,51,22.20
2013,05,04,15,52,22.10
2013,05,04,15,53,22.00
2013,05,04,15,54,21.90
2013,05,04,15,55,21.80
2013,05,04,15,56,21.70
2013,05,04,15,57,21.30
2013,05,04,15,58,21.10
2013,05,04,15,59,20.90
2013,05,04,16,00,20.60
2013,05,04,16,01,20.50
2013,05,04,16,02,20.40
2013,05,04,16,03,20.40
2013,05,04,16,04,20.40
2013,05,04,16,05,20.50
2013,05,04,16,06,20.60
2013,05,04,16,07,20.70
2013,05,04,16,08,20.80
2013,05,04,16,09,20.80
2013,05,04,16,10,20.70
2013,05,04,16,11,20.70
2013,05,04,16,12,20.80
2013,05,04,16,13,20.80
2013,05,04,16,14,20.80
2013,05,04,16,15,21.00
2013,05,04,16,16,21.10
2013,05,04,16,17,21.00
2013,05,04,16,18,20.90
2013,05,04,16,19,20.70
2013,05,04,16,20,20.70
2013,05,04,16,21,20.70
2013,05,04,16,22,20.60
2013,05,04,16,23,20.60
2013,05,04,16,24,20.60
2013,05,04,16,25,20.50
2013,05,04,16,26,20.40
2013,05,04,16,27,20.30
2013,05,04,16,28,20.20
2013,05,04,16,29,20.30
2013,05,04,16,30,20.40
2013,05,04,16,31,20.50
2013,05,04,16,32,20.50
2013,05,04,16,33,20.50
2013,05,04,16,34,20.50
2013,05,04,16,35,20.40
2013,05,04,16,36,20.40
2013,05,04,16,37,20.40
2013,05,04,16,38,20.40
2013,05,04,16,39,20.50
2013,05,04,16,40,20.50
2013,05,04,16,41,20.50
2013,05,04,16,42,20.50
2013,05,04,16,43,20.40
2013,05,04,16,44,20.30
2013,05,04,16,45,20.30
2013,05,04,16,46,20.30
2013,05,04,16,47,20.20
2013,05,04,16,48,20.20
2013,05,04,16,49,20.20
2013,05,04,16,50,20.20
2013,05,04,16,51,20.20
2013,05,04,16,52,20.20
2013,05,04,16,53,20.20
2013,05,04,16,54,20.20
2013,05,04,16,55,20.20
2013,05,04,16,56,20.20
2013,05,04,16,57,20.30
2013,05,04,16,58,20.30
2013,05,04,16,59,20.40
2013,05,04,17,00,20.60
2013,05,04,17,01,20.70
2013,05,04,17,02,20.80
2013,05,04,17,03,20.90
2013,05,04,17,04,21.00
2013,05,04,17,05,21.10
2013,05,04,17,06,21.20
2013,05,04,17,07,21.30
2013,05,04,17,08,21.30
2013,05,04,17,09,21.30
2013,05,04,17,10,21.30
2013,05,04,17,11,21.30
2013,05,04,17,12,21.30
2013,05,04,17,13,21.20
2013,05,04,17,14,21.20
2013,05,04,17,15,21.10
2013,05,04,17,16,20.80
2013,05,04,17,17,20.60
2013,05,04,17,18,20.40
2013,05,04,17,19,20.30
2013,05,04,17,20,20.30
2013,05,04,17,21,20.40
2013,05,04,17,22,20.50
2013,05,04,17,23,20.60
2013,05,04,17,24,20.70
2013,05,04,17,25,20.80
2013,05,04,17,26,21.00
2013,05,04,17,27,21.10
2013,05,04,17,28,21.20
2013,05,04,17,29,21.40
2013,05,04,17,30,21.50
2013,05,04,17,31,21.70
2013,05,04,17,32,21.80
2013,05,04,17,33,21.80
2013,05,04,17,34,21.60
2013,05,04,17,35,21.40
2013,05,04,17,36,21.20
2013,05,04,17,37,21.00